DW7456 Jacksonville FL US current weather conditions

sailwx.info

Wind from 122

Air temperature 15.6° C
Dewpoint 6.0° C

Last reported at 2020-Jan-28 22:03 UTC.
Time now 2020-Jan-28 22:51 UTC

Location: N 30°15' W 081°42'.
View on Google Maps.

See reports from other nearby stations

  
Tides and Currents Weather Stations Pressure Air Temp Water Temp Dewpoint Dewpoint Depression Visibility Wind Speed Wind Dir Waves Ship Positions
date/time (UTC)wind fromknots sea level pressurealtimeterstation pressurevisibilityair tempwater tempwave heightnotes
2020-Jan-28 22:03 122 15.6
2020-Jan-28 21:48 121 15.6
2020-Jan-28 21:33 121 16.1
2020-Jan-28 21:18 115 15.6
2020-Jan-28 21:03 117 16.1
2020-Jan-28 20:33 122 16.1
2020-Jan-28 20:18 118 16.7
2020-Jan-28 20:03 115 16.7
2020-Jan-28 19:48 113 16.1
2020-Jan-28 19:33 119 16.7
2020-Jan-28 19:18 115 16.1
2020-Jan-28 19:03 108 16.7
2020-Jan-28 18:48 121 16.1
2020-Jan-28 18:33 115 16.1
2020-Jan-28 18:18 120 15.6
2020-Jan-28 18:03 120 15.0
2020-Jan-28 17:48 127 15.0
2020-Jan-28 17:33 117 15.0
2020-Jan-28 17:18 122 14.4
2020-Jan-28 17:03 123 14.4
2020-Jan-28 16:48 109 13.9
2020-Jan-28 16:33 111 13.3
2020-Jan-28 16:18 129 12.8
2020-Jan-28 16:03 113 12.8
2020-Jan-28 15:48 115 12.8
2020-Jan-28 15:33 105 12.2
2020-Jan-28 15:18 112 12.2
2020-Jan-28 15:03 122 12.2
2020-Jan-28 14:48 106 11.7
2020-Jan-28 14:33 114 11.1
2020-Jan-28 14:18 105 10.6
2020-Jan-28 14:03 110 10.0
2020-Jan-28 13:48 115 9.4
2020-Jan-28 13:33 121 8.9
2020-Jan-28 13:18 109 8.3
2020-Jan-28 13:03 113 7.8
2020-Jan-28 12:48 108 7.2
2020-Jan-28 12:33 108 6.7
2020-Jan-28 12:18 108 7.2
2020-Jan-28 12:03 108 7.2
2020-Jan-28 11:33 108 7.8
2020-Jan-28 11:18 108 7.8
2020-Jan-28 11:03 109 7.8
2020-Jan-28 10:48 109 7.8
2020-Jan-28 10:33 109 7.8
2020-Jan-28 10:18 109 8.3
2020-Jan-28 10:03 109 8.3
2020-Jan-28 09:48 109 8.3
2020-Jan-28 09:33 109 8.3
2020-Jan-28 09:18 109 8.9
2020-Jan-28 09:03 109 9.4
2020-Jan-28 08:48 103 10.0
2020-Jan-28 08:33 105 10.0
2020-Jan-28 08:18 105 10.0
2020-Jan-28 08:03 110 10.0
2020-Jan-28 07:48 107 10.0
2020-Jan-28 07:33 105 9.4
2020-Jan-28 07:18 107 8.9
2020-Jan-28 07:03 107 8.9
2020-Jan-28 06:48 107 9.4
2020-Jan-28 06:33 107 9.4
2020-Jan-28 06:18 107 10.0
2020-Jan-28 06:03 107 10.0
2020-Jan-28 05:33 107 10.6
2020-Jan-28 05:18 108 11.1
2020-Jan-28 05:04 108 11.7
2020-Jan-28 04:48 108 11.7
2020-Jan-28 04:33 108 12.2
2020-Jan-28 04:18 108 12.8
2020-Jan-28 04:03 108 12.8
2020-Jan-28 03:48 108 13.3
2020-Jan-28 03:33 116 13.3
2020-Jan-28 03:18 105 13.9
2020-Jan-28 03:03 108 13.9
2020-Jan-28 02:48 106 14.4
2020-Jan-28 02:33 116 14.4
2020-Jan-28 02:18 110 15.0
2020-Jan-28 02:03 109 15.0
2020-Jan-28 01:48 112 15.6
2020-Jan-28 01:33 105 15.0
2020-Jan-28 01:18 105 15.6
2020-Jan-28 01:03 103 15.6
2020-Jan-28 00:48 103 15.6
2020-Jan-28 00:33 103 16.1
2020-Jan-28 00:18 103 16.1
2020-Jan-28 00:03 101 16.1
2020-Jan-27 23:48 101 16.1
2020-Jan-27 23:33 101 16.7
2020-Jan-27 23:18 102 16.7
2020-Jan-27 23:03 102 16.7
2020-Jan-27 22:48 100 16.7
2020-Jan-27 22:33 100 17.2
2020-Jan-27 22:18 102 17.2
2020-Jan-27 22:03 098 17.2
2020-Jan-27 21:48 103 17.8
2020-Jan-27 21:18 097 17.8
2020-Jan-27 21:03 098 17.8
2020-Jan-27 20:48 096 17.8
2020-Jan-27 20:33 101 17.8
2020-Jan-27 20:18 110 17.8
2020-Jan-27 20:03 103 17.2
2020-Jan-27 19:48 101 17.2
2020-Jan-27 19:33 100 17.2
2020-Jan-27 19:18 100 17.2
2020-Jan-27 19:03 103 17.2
2020-Jan-27 18:48 115 17.2
2020-Jan-27 18:33 098 17.8
2020-Jan-27 18:18 118 17.8
2020-Jan-27 18:03 097 17.2
2020-Jan-27 17:48 096 17.8
2020-Jan-27 17:33 108 17.2
2020-Jan-27 17:18 115 16.7
2020-Jan-27 17:03 123 16.1
2020-Jan-27 16:48 125 15.6
2020-Jan-27 16:33 122 15.0
2020-Jan-27 16:18 120 15.0
2020-Jan-27 16:03 118 14.4
2020-Jan-27 15:48 120 14.4
2020-Jan-27 15:33 121 14.4
2020-Jan-27 15:18 116 13.9
2020-Jan-27 15:03 117 13.3
2020-Jan-27 14:48 120 13.3
2020-Jan-27 14:33 115 12.8
2020-Jan-27 14:18 120 12.8
2020-Jan-27 14:03 118 12.8
2020-Jan-27 13:48 118 12.2
2020-Jan-27 13:33 114 12.2
2020-Jan-27 13:18 114 12.2
2020-Jan-27 13:03 114 11.7
2020-Jan-27 12:48 112 11.7
2020-Jan-27 12:33 112 11.7
2020-Jan-27 12:18 112 11.7
2020-Jan-27 12:03 112 11.7
2020-Jan-27 11:48 113 11.7
2020-Jan-27 11:33 109 11.7
2020-Jan-27 11:18 111 11.7
2020-Jan-27 11:03 117 11.7
2020-Jan-27 10:48 118 11.7
2020-Jan-27 10:33 118 11.7
2020-Jan-27 10:18 118 11.7
2020-Jan-27 10:03 118 11.7
2020-Jan-27 09:48 118 11.7
2020-Jan-27 09:33 118 11.7
2020-Jan-27 09:18 124 11.7
2020-Jan-27 09:03 124 12.2
2020-Jan-27 08:48 124 12.2
2020-Jan-27 08:33 124 12.2
2020-Jan-27 08:18 124 12.2
2020-Jan-27 08:03 124 12.2
2020-Jan-27 07:48 124 12.2
2020-Jan-27 07:33 117 12.2
2020-Jan-27 07:18 117 12.2
2020-Jan-27 07:03 117 12.2
2020-Jan-27 06:48 120 12.2
2020-Jan-27 06:33 117 12.2
2020-Jan-27 06:18 108 12.8
2020-Jan-27 06:03 113 12.2
2020-Jan-27 05:48 111 12.2
2020-Jan-27 05:33 111 11.7
2020-Jan-27 05:18 111 12.2
2020-Jan-27 05:03 111 12.2
2020-Jan-27 04:48 111 12.8
2020-Jan-27 04:33 111 12.8
2020-Jan-27 04:18 111 13.3
2020-Jan-27 04:03 111 13.3
2020-Jan-27 03:48 111 13.9
2020-Jan-27 03:33 111 13.9
2020-Jan-27 03:18 111 13.9
2020-Jan-27 03:03 111 13.9
2020-Jan-27 02:48 111 14.4
2020-Jan-27 02:33 111 14.4
2020-Jan-27 02:18 111 14.4
2020-Jan-27 02:03 111 14.4
2020-Jan-27 01:48 111 14.4
2020-Jan-27 01:33 111 15.0
2020-Jan-27 01:18 111 15.0
2020-Jan-27 01:03 111 15.0
2020-Jan-27 00:48 111 15.0
2020-Jan-27 00:33 111 15.0
2020-Jan-27 00:18 111 15.6
2020-Jan-27 00:03 111 15.6
2020-Jan-26 23:48 111 15.6
2020-Jan-26 23:18 110 16.7
2020-Jan-26 23:03 108 16.7
2020-Jan-26 22:48 105 17.2
2020-Jan-26 22:33 105 17.2
2020-Jan-26 22:18 107 17.8
2020-Jan-26 22:03 107 17.8